This is the latest recevied weather packets stored in our database for station/object W5LND-10. If no packets are shown the sender has not sent any weather packets the latest 10 day(s).
| Time | Temp. | Humidity | Pressure | Rain* | Wind** | Luminosity | Snow |
|---|---|---|---|---|---|---|---|
| 1777481487 | 17.22° C | 62% | 1011.2 hPa | 0 mm | - | 397 W/m² | - |
| 1777481187 | 16.67° C | 63% | 1011.1 hPa | 0 mm | - | 585 W/m² | - |
| 1777480887 | 16.67° C | 64% | 1011.1 hPa | 0 mm | - | 752 W/m² | - |
| 1777480587 | 16.67° C | 65% | 1011.3 hPa | 0 mm | - | 661 W/m² | - |
| 1777480287 | 16.11° C | 65% | 1011.4 hPa | 0 mm | - | 490 W/m² | - |
| 1777479987 | 16.11° C | 65% | 1011.2 hPa | 0 mm | - | 559 W/m² | - |
| 1777479687 | 16.11° C | 65% | 1011.6 hPa | 0 mm | - | 422 W/m² | - |
| 1777479387 | 16.11° C | 66% | 1011.8 hPa | 0 mm | - | 348 W/m² | - |
| 1777479087 | 16.11° C | 66% | 1011.6 hPa | 0 mm | - | 357 W/m² | - |
| 1777478787 | 16.11° C | 67% | 1011.8 hPa | 0 mm | - | 369 W/m² | - |
| 1777478487 | 16.11° C | 67% | 1011.7 hPa | 0 mm | - | 371 W/m² | - |
| 1777478187 | 16.11° C | 68% | 1011.6 hPa | 0 mm | - | 367 W/m² | - |
| 1777477887 | 15.56° C | 68% | 1011.8 hPa | 0 mm | - | 394 W/m² | - |
| 1777477587 | 15.56° C | 69% | 1011.7 hPa | 0 mm | - | 299 W/m² | - |
| 1777477287 | 15.56° C | 69% | 1011.6 hPa | 0 mm | - | 281 W/m² | - |
| 1777476987 | 15.56° C | 69% | 1011.6 hPa | 0 mm | - | 221 W/m² | - |
| 1777476687 | 15.56° C | 69% | 1011.3 hPa | 0 mm | - | 220 W/m² | - |
| 1777476387 | 15.56° C | 69% | 1011.2 hPa | 0 mm | - | 230 W/m² | - |
| 1777476087 | 15.56° C | 69% | 1011.1 hPa | 0 mm | - | 234 W/m² | - |
| 1777475787 | 15.56° C | 69% | 1011.5 hPa | 0 mm | - | 213 W/m² | - |
| 1777475487 | 15.56° C | 69% | 1011.4 hPa | 0 mm | - | 216 W/m² | - |
| 1777475187 | 16.11° C | 68% | 1011.2 hPa | 0 mm | - | 232 W/m² | - |
| 1777474887 | 16.11° C | 68% | 1011.1 hPa | 0 mm | - | 264 W/m² | - |
| 1777474587 | 16.11° C | 69% | 1011 hPa | 0 mm | - | 476 W/m² | - |
| 1777474287 | 16.11° C | 69% | 1011 hPa | 0 mm | - | 643 W/m² | - |
* Rain latest hour (hover to see other rain measurements)
** Current wind speed in m/s (hover to see current wind gust speed)